| time (UTC) | temp F | wind direction | speed knots | gust knots | rain 1hr in | rain 24hr in | rain mn in | humidity % | barometer mb |
| 20260506044538 | 66 | 326 | 1.7 | 7.8 | 0.00 | 0.00 | 0.00 | 47 | 1014.9 |
| 20260506043039 | 67 | 333 | 4.3 | 7.8 | 0.00 | 0.00 | 0.00 | 46 | 1014.6 |
| 20260506041549 | 68 | 315 | 3.5 | 10.4 | 0.00 | 0.00 | 0.00 | 45 | 1014.4 |
| 20260506040033 | 68 | 333 | 4.3 | 10.4 | 0.00 | 0.00 | 0.00 | 46 | 1014.0 |
| 20260506034543 | 68 | 350 | 3.5 | 8.7 | 0.00 | 0.00 | 0.00 | 47 | 1013.8 |
| 20260506033050 | 70 | 340 | 2.6 | 5.2 | 0.00 | 0.00 | 0.00 | 45 | 1013.5 |
| 20260506031532 | 71 | 355 | 1.7 | 5.2 | 0.00 | 0.00 | 0.00 | 44 | 1013.3 |
| 20260506030032 | 72 | 307 | 2.6 | 8.7 | 0.00 | 0.00 | 0.00 | 43 | 1013.1 |
| 20260506024533 | 74 | 14 | 4.3 | 8.7 | 0.00 | 0.00 | 0.00 | 41 | 1013.0 |
| 20260506023033 | 75 | 341 | 5.2 | 9.6 | 0.00 | 0.00 | 0.00 | 38 | 1012.8 |
| 20260506021533 | 76 | 334 | 5.2 | 8.7 | 0.00 | 0.00 | 0.00 | 37 | 1012.7 |
| 20260506020032 | 77 | 293 | 6.1 | 10.4 | 0.00 | 0.00 | 0.00 | 35 | 1012.4 |
| 20260506014533 | 78 | 336 | 4.3 | 9.6 | 0.00 | 0.00 | 0.00 | 34 | 1012.4 |
| 20260506013049 | 78 | 322 | 4.3 | 11.3 | 0.00 | 0.00 | 0.00 | 35 | 1012.3 |
| 20260506011541 | 79 | 333 | 5.2 | 8.7 | 0.00 | 0.00 | 0.00 | 43 | 1012.1 |
| 20260506010035 | 79 | 0 | 0.9 | 7.8 | 0.00 | 0.00 | 0.00 | 44 | 1012.2 |
| 20260506004531 | 79 | 225 | 2.6 | 7.0 | 0.00 | 0.00 | 0.00 | 44 | 1012.2 |
| 20260506003034 | 77 | 0 | 0.0 | 8.7 | 0.00 | 0.00 | 0.00 | 46 | 1012.0 |
| 20260506001530 | 77 | 223 | 3.5 | 7.8 | 0.00 | 0.00 | 0.00 | 46 | 1012.1 |
| 20260506000036 | 78 | 221 | 2.6 | 7.8 | 0.00 | 0.00 | 0.00 | 48 | 1012.0 |
| 20260505234534 | 78 | 351 | 0.9 | 7.0 | 0.00 | 0.00 | 0.00 | 48 | 1012.1 |
| 20260505233033 | 76 | 231 | 2.6 | 8.7 | 0.00 | 0.00 | 0.00 | 48 | 1012.2 |
| 20260505231531 | 76 | 175 | 2.6 | 8.7 | 0.00 | 0.00 | 0.00 | 51 | 1012.3 |
| 20260505230052 | 75 | 117 | 1.7 | 8.7 | 0.00 | 0.00 | 0.00 | 49 | 1012.5 |
| 20260505224535 | 75 | 205 | 0.9 | 11.3 | 0.00 | 0.00 | 0.00 | 49 | 1012.9 |
| 20260505223039 | 75 | 207 | 0.9 | 6.1 | 0.00 | 0.00 | 0.00 | 51 | 1013.1 |
| 20260505221534 | 74 | 157 | 1.7 | 8.7 | 0.00 | 0.00 | 0.00 | 48 | 1013.2 |
| 20260505220047 | 73 | 194 | 0.9 | 7.8 | 0.00 | 0.00 | 0.00 | 50 | 1013.3 |
| 20260505214536 | 73 | 242 | 4.3 | 8.7 | 0.00 | 0.00 | 0.00 | 51 | 1013.5 |
| 20260505213034 | 73 | 328 | 1.7 | 7.0 | 0.00 | 0.00 | 0.00 | 50 | 1013.6 |
| 20260505211546 | 72 | 51 | 3.5 | 7.8 | 0.00 | 0.00 | 0.00 | 52 | 1013.7 |
| 20260505210035 | 72 | 345 | 2.6 | 7.0 | 0.00 | 0.00 | 0.00 | 51 | 1013.7 |
| 20260505204536 | 70 | 197 | 2.6 | 8.7 | 0.00 | 0.00 | 0.00 | 54 | 1014.1 |
| 20260505203033 | 70 | 298 | 0.9 | 7.8 | 0.00 | 0.00 | 0.00 | 55 | 1014.2 |
| 20260505201532 | 68 | 206 | 2.6 | 7.8 | 0.00 | 0.00 | 0.00 | 59 | 1014.5 |
| 20260505200039 | 68 | 17 | 4.3 | 7.8 | 0.00 | 0.00 | 0.00 | 59 | 1014.7 |
| 20260505194530 | 66 | 0 | 0.0 | 7.0 | 0.00 | 0.00 | 0.00 | 58 | 1014.9 |
| 20260505193034 | 65 | 200 | 3.5 | 8.7 | 0.00 | 0.00 | 0.00 | 60 | 1015.1 |
| 20260505191541 | 65 | 286 | 1.7 | 6.1 | 0.00 | 0.00 | 0.00 | 60 | 1015.2 |
| 20260505190033 | 64 | 266 | 2.6 | 7.8 | 0.00 | 0.00 | 0.00 | 64 | 1015.2 |
| 20260505184533 | 64 | 157 | 1.7 | 6.1 | 0.00 | 0.00 | 0.00 | 64 | 1015.4 |
| 20260505183036 | 62 | 150 | 3.5 | 7.0 | 0.00 | 0.00 | 0.00 | 65 | 1015.5 |
| 20260505181541 | 62 | 163 | 2.6 | 8.7 | 0.00 | 0.00 | 0.00 | 67 | 1015.5 |
| 20260505180034 | 62 | 188 | 0.9 | 6.1 | 0.00 | 0.00 | 0.00 | 66 | 1015.2 |
| 20260505174533 | 60 | 154 | 1.7 | 7.0 | 0.00 | 0.00 | 0.00 | 70 | 1015.6 |
| 20260505173032 | 60 | 163 | 1.7 | 8.7 | 0.00 | 0.00 | 0.00 | 73 | 1015.6 |
| 20260505171535 | 60 | 260 | 4.3 | 8.7 | 0.00 | 0.00 | 0.00 | 71 | 1015.7 |
| 20260505170034 | 59 | 196 | 4.3 | 7.0 | 0.00 | 0.00 | 0.00 | 73 | 1015.8 |
| 20260505164533 | 59 | 164 | 4.3 | 7.0 | 0.00 | 0.00 | 0.00 | 77 | 1015.9 |
| 20260505163032 | 59 | 180 | 2.6 | 6.1 | 0.00 | 0.00 | 0.00 | 75 | 1015.9 |
| 20260505161540 | 58 | 0 | 0.9 | 4.3 | 0.00 | 0.00 | 0.00 | 76 | 1015.9 |
| 20260505153033 | 55 | 0 | 0.0 | 0.9 | 0.00 | 0.00 | 0.00 | 81 | 1015.9 |
| 20260505151534 | 54 | 0 | 0.0 | 0.9 | 0.00 | 0.00 | 0.00 | 83 | 1015.7 |
| 20260505124533 | 49 | 10 | 4.3 | 7.0 | 0.00 | 0.00 | 0.00 | 91 | 1014.5 |
| 20260505123035 | 49 | 5 | 0.9 | 2.6 | 0.00 | 0.00 | 0.00 | 92 | 1014.4 |
| 20260505121538 | 48 | 0 | 0.9 | 2.6 | 0.00 | 0.00 | 0.00 | 92 | 1014.2 |
| 20260505120033 | 48 | 25 | 0.0 | 1.7 | 0.00 | 0.00 | 0.00 | 92 | 1014.2 |
| 20260505114538 | 47 | 0 | 0.0 | 0.0 | 0.00 | 0.00 | 0.00 | 92 | 1014.1 |
| 20260505113031 | 47 | 0 | 0.0 | 0.9 | 0.00 | 0.00 | 0.00 | 92 | 1014.2 |
| 20260505111534 | 47 | 0 | 0.0 | 0.9 | 0.00 | 0.00 | 0.00 | 91 | 1014.0 |
| 20260505101542 | 51 | 12 | 1.7 | 3.5 | 0.00 | 0.00 | 0.00 | 86 | 1013.7 |
| 20260505100035 | 52 | 0 | 0.0 | 1.7 | 0.00 | 0.00 | 0.00 | 85 | 1013.6 |
| 20260505094532 | 53 | 78 | 0.0 | 1.7 | 0.00 | 0.00 | 0.00 | 84 | 1013.7 |
| 20260505093034 | 53 | 0 | 0.0 | 2.6 | 0.00 | 0.00 | 0.00 | 83 | 1013.7 |
| 20260505091535 | 54 | 351 | 0.9 | 2.6 | 0.00 | 0.00 | 0.00 | 83 | 1013.7 |
| 20260505090043 | 54 | 0 | 0.0 | 0.9 | 0.00 | 0.00 | 0.00 | 81 | 1013.7 |
| 20260505084550 | 55 | 0 | 0.0 | 2.6 | 0.00 | 0.00 | 0.00 | 80 | 1013.7 |
| 20260505083041 | 56 | 309 | 0.9 | 3.5 | 0.00 | 0.00 | 0.00 | 79 | 1013.7 |
| 20260505081532 | 56 | 323 | 1.7 | 5.2 | 0.00 | 0.00 | 0.00 | 78 | 1013.7 |
| 20260505080041 | 56 | 323 | 0.0 | 4.3 | 0.00 | 0.00 | 0.00 | 78 | 1013.6 |
| 20260505074531 | 57 | 0 | 1.7 | 5.2 | 0.00 | 0.00 | 0.00 | 78 | 1013.4 |
| 20260505073036 | 57 | 325 | 1.7 | 7.0 | 0.00 | 0.00 | 0.00 | 77 | 1013.2 |
| 20260505071543 | 58 | 286 | 2.6 | 7.8 | 0.00 | 0.00 | 0.00 | 76 | 1013.2 |
| 20260505070034 | 58 | 0 | 2.6 | 7.8 | 0.00 | 0.00 | 0.00 | 75 | 1013.1 |
| 20260505064541 | 59 | 343 | 2.6 | 7.0 | 0.00 | 0.00 | 0.00 | 74 | 1012.9 |
| 20260505063038 | 59 | 311 | 0.0 | 4.3 | 0.00 | 0.00 | 0.00 | 73 | 1012.8 |
| 20260505061536 | 60 | 313 | 2.6 | 7.0 | 0.00 | 0.00 | 0.00 | 72 | 1012.7 |
| 20260505060037 | 60 | 325 | 1.7 | 3.5 | 0.00 | 0.00 | 0.00 | 73 | 1012.5 |
| 20260505054536 | 61 | 360 | 0.0 | 4.3 | 0.00 | 0.00 | 0.00 | 71 | 1012.2 |
| 20260505053039 | 62 | 294 | 2.6 | 6.1 | 0.00 | 0.00 | 0.00 | 70 | 1012.2 |
| 20260505051535 | 62 | 242 | 0.9 | 4.3 | 0.00 | 0.00 | 0.00 | 70 | 1012.1 |